[[{"header":{"parameterUnit":"m.s-1","parameterCategory":1,"la1":30.2991,"la2":30.254,"lo1":-89.0895,"lo2":-89.0444,"dy":0.0017,"dx":0.0017,"nx":28,"ny":28,"refTime":"2025-06-06T03:00:00:Z","depth":0,"parameterNumber":2,"parameterNumberName":"U-component_of_WINDS"},"data":[0,0,0,0,0,0,0,0,0,0,0,0,0,0,0,0,0,0,0,0,0,0,0,0,0,0,0,0,0,0,0,0,0,0,0,0,0,0,0,0,0,0,0,0,0,0,0,0,0,0,0,0,0,0,0,0,0,0,-0.1665,-0.1664,0,-0.155,-0.1549,-0.1548,-0.1494,-0.1494,-0.1495,-0.1495,-0.1376,-0.1373,-0.137,0,0,0,0,0,0,0,0,0,0,0,0,0,-0.1837,-0.1834,-0.1665,-0.1664,-0.1662,-0.1551,-0.1549,-0.1548,-0.1494,-0.1494,-0.1495,-0.1495,-0.1377,-0.1374,-0.137,0,0,0,0,0,0,0,0,0,0,0,0,0,-0.1747,-0.1833,-0.1665,-0.1622,-0.1617,-0.1551,-0.1549,-0.1547,-0.1494,-0.1494,-0.1495,-0.1495,-0.1379,-0.1374,-0.1369,-0.1337,0,0,-0.1354,-0.1352,0,0,0,0,0,0,0,0,-0.1752,-0.174,-0.163,-0.1625,-0.1619,-0.1537,-0.1566,-0.1477,-0.1494,-0.1541,-0.1495,-0.1495,-0.143,-0.1421,-0.1399,-0.1331,-0.1326,-0.1354,-0.1351,-0.1349,-0.1348,0,0,0,0,0,0,0,-0.1758,-0.1745,-0.162,-0.1628,-0.1622,-0.1608,-0.1596,-0.1549,-0.1486,-0.1537,-0.1533,-0.152,-0.1427,-0.1404,-0.1396,-0.1325,-0.1354,-0.135,-0.1347,-0.1345,-0.1226,-0.1225,0,0,0,0,0,0,-0.1771,-0.175,-0.1623,-0.1616,-0.1687,-0.1605,-0.1591,-0.1563,-0.1486,-0.1475,-0.152,-0.1518,-0.1412,-0.1401,-0.1391,-0.1349,-0.1349,-0.1344,-0.1342,-0.1226,-0.1225,-0.1225,0,0,0,0,0,0,-0.1775,-0.1761,-0.1628,-0.1682,-0.1664,-0.1602,-0.1571,-0.1561,-0.1538,-0.1474,-0.1462,-0.1508,-0.1411,-0.1398,-0.1351,-0.1344,-0.1342,-0.1338,-0.1226,-0.1226,-0.1225,-0.1263,0,0,0,0,0,0,-0.1781,-0.1762,-0.1749,-0.1682,-0.1662,-0.159,-0.1571,-0.1559,-0.153,-0.1526,-0.1459,-0.1448,-0.1411,-0.1359,-0.1346,-0.1337,-0.1334,-0.1226,-0.1226,-0.1225,-0.1262,-0.1264,-0.1266,0,0,0,0,0,-0.1787,-0.1764,-0.1749,-0.1734,-0.1644,-0.1589,-0.1578,-0.1535,-0.1529,-0.1516,-0.1475,-0.145,-0.1347,-0.1354,-0.134,-0.1329,-0.1227,-0.1226,-0.1225,-0.1261,-0.1264,-0.1266,0,0,0,0,0,0,-0.1831,-0.1755,-0.1737,-0.1692,-0.1648,-0.1581,-0.1562,-0.1538,-0.1495,-0.1493,-0.1441,-0.1427,-0.1385,-0.1352,-0.1362,-0.1294,-0.1285,-0.1281,-0.1317,-0.1318,-0.132,-0.1329,-0.133,0,0,0,0,0,-0.1836,-0.1798,-0.1733,-0.17,-0.1679,-0.1624,-0.1599,-0.157,-0.1522,-0.1503,-0.1458,-0.1412,-0.137,-0.1342,-0.1299,-0.1258,-0.1242,-0.1243,-0.1245,-0.1247,-0.1244,-0.122,-0.122,-0.1223,-0.1223,-0.1223,0,0,-0.1845,-0.1799,-0.1778,-0.1707,-0.167,-0.1632,-0.1609,-0.1569,-0.1541,-0.1497,-0.145,-0.1416,-0.1361,-0.1317,-0.1295,-0.1289,-0.124,-0.1246,-0.1248,-0.1244,-0.122,-0.1219,-0.1219,-0.1223,-0.1223,-0.1223,0,0,-0.1842,-0.1803,-0.1771,-0.1734,-0.1678,-0.1642,-0.1635,-0.1571,-0.1547,-0.1499,-0.1466,-0.1431,-0.1358,-0.1321,-0.1292,-0.1277,-0.1253,-0.1264,-0.1273,-0.125,-0.125,-0.125,-0.1244,-0.1243,-0.1262,-0.1262,-0.1262,0,-0.186,-0.1802,-0.1758,-0.172,-0.1691,-0.165,-0.1617,-0.1584,-0.1516,-0.1496,-0.149,-0.1399,-0.1359,-0.1306,-0.1302,-0.128,-0.127,-0.1271,-0.1254,-0.1253,-0.1252,-0.1246,-0.1244,-0.1264,-0.1264,-0.1264,-0.1263,0,-0.1827,-0.1787,-0.1768,-0.1705,-0.1673,-0.1638,-0.1589,-0.1562,-0.1536,-0.1502,-0.1454,-0.1405,-0.1352,-0.1337,-0.1311,-0.128,-0.1278,-0.1264,-0.1253,-0.1254,-0.1248,-0.1245,-0.1266,-0.1266,-0.1265,-0.1265,0,0,-0.1847,-0.1761,-0.1755,-0.1726,-0.1661,-0.1629,-0.1593,-0.1542,-0.152,-0.1475,-0.1443,-0.1383,-0.137,-0.1338,-0.1307,-0.1288,-0.1279,-0.1275,-0.1273,-0.1278,-0.1242,-0.1253,-0.1252,-0.1263,-0.1263,-0.1262,-0.1247,0,-0.1835,-0.1769,-0.1729,-0.1678,-0.1641,-0.1603,-0.1571,-0.1528,-0.1495,-0.1459,-0.1422,-0.138,-0.1365,-0.1346,-0.1325,-0.1285,-0.1271,-0.1285,-0.1233,-0.1232,-0.1247,-0.1248,-0.1259,-0.1247,-0.1244,-0.1244,-0.1243,0,-0.1812,-0.1769,-0.1715,-0.1656,-0.1638,-0.1611,-0.1561,-0.1526,-0.1477,-0.1455,-0.142,-0.139,-0.135,-0.1343,-0.1288,-0.1299,-0.1275,-0.1252,-0.1251,-0.1244,-0.1237,-0.1241,-0.1242,-0.1241,-0.1239,-0.1239,-0.124,0,-0.1833,-0.1761,-0.1719,-0.1696,-0.1625,-0.1607,-0.1577,-0.1528,-0.15,-0.1456,-0.1437,-0.139,-0.1364,-0.1327,-0.1285,-0.1284,-0.1235,-0.1224,-0.1214,-0.1216,-0.1205,-0.1206,-0.1203,-0.1191,-0.1191,-0.1191,-0.1191,0,-0.1823,-0.1791,-0.1728,-0.1702,-0.1666,-0.1621,-0.1586,-0.1553,-0.151,-0.1477,-0.1441,-0.1412,-0.1358,-0.1322,-0.1289,-0.1248,-0.1237,-0.1217,-0.1209,-0.122,-0.1223,-0.1203,-0.1203,-0.119,-0.119,-0.1191,-0.1191,0,-0.1839,-0.1795,-0.1748,-0.1685,-0.1669,-0.1645,-0.1592,-0.1566,-0.1531,-0.1491,-0.1479,-0.1424,-0.138,-0.1335,-0.1274,-0.1252,-0.1213,-0.1201,-0.1229,-0.1224,-0.1217,-0.1219,-0.1201,-0.1196,-0.1188,-0.1189,-0.1189,0,-0.1836,-0.1811,-0.1746,-0.1722,-0.1693,-0.1654,-0.1626,-0.158,-0.1552,-0.1495,-0.1476,-0.1429,-0.1389,-0.132,-0.1275,-0.1229,-0.1216,-0.1213,-0.1209,-0.1221,-0.1216,-0.1218,-0.1215,-0.1214,-0.1215,-0.1215,-0.1215,0,-0.1834,-0.1814,-0.1774,-0.1727,-0.1695,-0.1655,-0.1615,-0.1597,-0.1544,-0.1514,-0.1469,-0.1438,-0.1377,-0.1331,-0.128,-0.1248,-0.1223,-0.1217,-0.1212,-0.1223,-0.1241,-0.1231,-0.1234,-0.1217,-0.1217,-0.1217,-0.1217,-0.1217,-0.184,-0.1816,-0.1767,-0.1725,-0.169,-0.1653,-0.1626,-0.1588,-0.155,-0.1497,-0.1473,-0.1427,-0.1379,-0.1308,-0.1278,-0.1241,-0.1234,-0.1227,-0.1226,-0.1224,-0.1227,-0.1247,-0.1232,-0.1232,-0.1232,-0.1231,-0.1231,0,-0.1837,-0.1804,-0.1765,-0.171,-0.1676,-0.1656,-0.1611,-0.1584,-0.1544,-0.1502,-0.1464,-0.1412,-0.1368,-0.132,-0.1273,-0.1253,-0.124,-0.1242,-0.1242,-0.1236,-0.1236,-0.1245,-0.1253,-0.1253,-0.1253,-0.1253,-0.1253,-0.1253,-0.1831,-0.179,-0.1764,-0.1706,-0.1673,-0.1628,-0.1604,-0.157,-0.1536,-0.148,-0.1443,-0.1412,-0.1368,-0.1317,-0.1276,-0.1263,-0.1247,-0.1252,-0.1236,-0.1237,-0.1236,-0.1234,-0.1242,-0.1249,-0.1249,-0.1238,-0.1238,-0.1238]},{"header":{"parameterUnit":"m.s-1","parameterCategory":1,"la1":30.2991,"la2":30.254,"lo1":-89.0895,"lo2":-89.0444,"dy":0.0017,"dx":0.0017,"nx":28,"ny":28,"refTime":"2025-06-06T03:00:00:Z","depth":0,"parameterNumber":3,"parameterNumberName":"V-component_of_WINDS"},"data":[0,0,0,0,0,0,0,0,0,0,0,0,0,0,0,0,0,0,0,0,0,0,0,0,0,0,0,0,0,0,0,0,0,0,0,0,0,0,0,0,0,0,0,0,0,0,0,0,0,0,0,0,0,0,0,0,0,0,3.8531,3.8531,0,3.8611,3.8612,3.8613,3.8585,3.8583,3.8581,3.8579,3.8656,3.8659,3.8663,0,0,0,0,0,0,0,0,0,0,0,0,0,3.8345,3.8349,3.853,3.8532,3.8533,3.8611,3.8612,3.8613,3.8585,3.8583,3.8581,3.8579,3.8654,3.8659,3.8663,0,0,0,0,0,0,0,0,0,0,0,0,0,3.8426,3.835,3.853,3.8528,3.8529,3.8611,3.8612,3.8613,3.8585,3.8583,3.858,3.8578,3.8653,3.8658,3.8664,3.8751,0,0,3.8681,3.8683,0,0,0,0,0,0,0,0,3.8421,3.8432,3.8527,3.8528,3.8529,3.8585,3.8574,3.8659,3.8586,3.8564,3.8579,3.8576,3.8634,3.8641,3.8661,3.8754,3.8757,3.8681,3.8684,3.8687,3.8688,0,0,0,0,0,0,0,3.8416,3.8429,3.8562,3.8529,3.853,3.8521,3.8529,3.859,3.8612,3.8565,3.8564,3.8574,3.8634,3.8656,3.8663,3.8759,3.8681,3.8686,3.8689,3.8691,3.8924,3.8927,0,0,0,0,0,0,3.8411,3.8424,3.8559,3.8564,3.8468,3.8526,3.8536,3.857,3.8612,3.8616,3.8576,3.8572,3.8648,3.8657,3.8666,3.8769,3.8687,3.8692,3.8695,3.8921,3.8925,3.8928,0,0,0,0,0,0,3.8407,3.8423,3.8556,3.8494,3.851,3.8532,3.8571,3.8573,3.8595,3.862,3.8623,3.8595,3.8646,3.8658,3.873,3.8771,3.8694,3.8699,3.8918,3.8922,3.8926,3.8977,0,0,0,0,0,0,3.8402,3.8422,3.8457,3.8495,3.8514,3.8621,3.8573,3.8576,3.8606,3.8601,3.8639,3.8642,3.8645,3.8722,3.8735,3.8777,3.8704,3.8914,3.892,3.8925,3.8971,3.8982,3.8991,0,0,0,0,0,3.8395,3.8467,3.8459,3.8475,3.8559,3.8624,3.8634,3.8638,3.8609,3.8643,3.8658,3.8641,3.8764,3.8729,3.8744,3.8789,3.8911,3.8918,3.8924,3.8967,3.898,3.8991,0,0,0,0,0,0,3.8431,3.8472,3.8463,3.855,3.8584,3.8619,3.8662,3.8652,3.8693,3.8687,3.8688,3.8696,3.877,3.8786,3.8746,3.8874,3.8833,3.8843,3.886,3.8873,3.8883,3.8877,3.8708,0,0,0,0,0,3.8449,3.8501,3.8533,3.8607,3.8624,3.8641,3.8669,3.8669,3.8703,3.8716,3.8737,3.8769,3.8815,3.8845,3.8888,3.8974,3.898,3.9011,3.9021,3.9029,3.9037,3.9082,3.9095,3.8949,3.8949,3.8949,0,0,3.8487,3.8516,3.8548,3.8615,3.8641,3.8692,3.8653,3.8709,3.8746,3.8724,3.8794,3.881,3.8845,3.8924,3.8959,3.894,3.9079,3.9038,3.9044,3.9048,3.909,3.9103,3.9116,3.8953,3.8953,3.8952,0,0,3.8582,3.861,3.8674,3.8701,3.8742,3.8752,3.8767,3.8804,3.8814,3.8884,3.8868,3.8911,3.8991,3.9016,3.9039,3.9143,3.9127,3.9157,3.9209,3.9252,3.9263,3.9273,3.9308,3.9321,3.9165,3.9165,3.9165,0,3.8624,3.8703,3.8707,3.8765,3.8793,3.8778,3.884,3.8866,3.8918,3.8937,3.8914,3.9013,3.9035,3.9119,3.9144,3.9164,3.9179,3.9152,3.9262,3.9272,3.9281,3.9315,3.9328,3.9168,3.9168,3.9167,3.9167,0,3.8751,3.8806,3.8852,3.8904,3.8938,3.8997,3.9008,3.9041,3.9038,3.905,3.9119,3.9146,3.9194,3.9214,3.9211,3.9296,3.9283,3.9261,3.922,3.9298,3.933,3.9343,3.9173,3.9171,3.9171,3.917,0,0,3.8871,3.8925,3.8942,3.8965,3.9008,3.9049,3.9107,3.9155,3.9183,3.9218,3.9265,3.9332,3.9312,3.9339,3.9338,3.9376,3.9454,3.9349,3.935,3.9366,3.9547,3.9563,3.9578,3.9444,3.9447,3.9449,3.9544,0,3.8969,3.9074,3.9078,3.9172,3.9221,3.9206,3.9256,3.9287,3.9299,3.934,3.9352,3.9399,3.937,3.9386,3.9423,3.9437,3.949,3.943,3.9485,3.9487,3.9477,3.9595,3.9611,3.97,3.9556,3.9559,3.956,0,3.9098,3.9139,3.9238,3.9273,3.9294,3.9339,3.9383,3.9424,3.9456,3.9462,3.9492,3.9485,3.9541,3.9499,3.9575,3.9534,3.9557,3.9567,3.9571,3.9575,3.9528,3.9601,3.9729,3.9742,3.958,3.9578,3.9577,0,3.9174,3.9254,3.9324,3.9344,3.9386,3.9418,3.9437,3.9467,3.9496,3.9533,3.9551,3.9594,3.9617,3.965,3.9653,3.9623,3.973,3.9688,3.9734,3.9734,3.9757,3.9755,3.9889,3.9773,3.9773,3.9773,3.9772,0,3.9282,3.9343,3.9358,3.9401,3.9468,3.9471,3.9537,3.9552,3.958,3.9623,3.9612,3.9652,3.9656,3.9696,3.97,3.9761,3.9772,3.9776,3.9776,3.9777,3.9776,3.9791,3.9785,3.9776,3.9775,3.9775,3.9774,0,3.9379,3.9392,3.9466,3.95,3.951,3.9558,3.9586,3.9625,3.9636,3.969,3.9703,3.9719,3.9767,3.9774,3.9829,3.9831,3.9904,3.9898,3.9894,3.9893,3.9937,3.9933,4.0085,4.0104,3.9977,3.9978,3.9979,0,3.9447,3.9493,3.9533,3.9562,3.9583,3.963,3.9659,3.9663,3.9694,3.9734,3.9768,3.9814,3.9852,3.9928,3.9942,3.9984,3.9978,4.0028,3.9984,3.9983,3.9977,3.9974,3.9978,4.0037,4.0038,4.0039,4.004,0,3.9565,3.9569,3.9613,3.9658,3.9694,3.9729,3.9763,3.9787,3.9795,3.9829,3.9878,3.9907,3.9964,4.0009,4.005,4.0067,4.0054,4.0054,4.0066,4.0067,4.0062,4.0064,3.9916,4.005,4.0049,4.0049,4.0048,4.0048,3.9649,3.9689,3.9723,3.9771,3.9797,3.9828,3.9866,3.9882,3.9924,3.9971,3.9971,4.0024,4.0053,4.0107,4.0127,4.0167,4.015,4.0168,4.0173,4.0177,4.0181,4.0057,4.0174,4.0174,4.0174,4.0173,4.0173,0,3.9766,3.9787,3.9831,3.9879,3.9916,3.9903,3.9939,3.997,4.0018,4.0047,4.0084,4.014,4.0183,4.0202,4.0244,4.0272,4.0267,4.0283,4.028,4.0284,4.0194,4.0178,4.0286,4.0286,4.0286,4.0286,4.0286,4.0286,3.9831,3.9898,3.9905,3.9984,4.0003,4.0057,4.0078,4.0106,4.0129,4.0192,4.0229,4.0241,4.0265,4.0309,4.0348,4.0351,4.0367,4.0385,4.0386,4.0302,4.029,4.0279,4.0265,4.0388,4.0389,4.0472,4.0473,4.0473]}]]